Regional Weather Roundup
Issued by NWS

Home | Current Version | Previous Version | Text Only | Print | Product List | Glossary Off
Versions: 1 2 3 4 5 6 7 8 9 10 11 12 13 14 15 16 17 18 19 20 21 22 23 24 25 26 27

000
ASUS45 KBOU 172110
RWRCO

WEATHER ROUNDUP FOR COLORADO
NATIONAL WEATHER SERVICE DENVER/BOULDER CO
200 PM MST WED JAN 17 2018

NOTE: "FAIR" INDICATES FEW OR NO CLOUDS BELOW 12000 FEET WITH NO
SIGNIFICANT WEATHER AND/OR OBSTRUCTIONS TO VISIBILITY.

COZ001>005-013-030-031-172200-
...NORTHWEST COLORADO...

CITY           SKY/WX    TMP DP  RH WIND       PRES   REMARKS
CRAIG          FAIR      36   7  29 CALM      30.38F
HAYDEN         FAIR     N/A N/A N/A SW3       30.38F
MEEKER         FAIR      43  15  32 SW10      30.35F
RABBIT EARS PA FAIR      28  19  69 W9        30.35S WCI  20
STEAMBOAT SPGS FAIR      26   9  48 CALM      30.37S
WALDEN         FAIR      34   7  32 CALM      30.34F
$$

COZ006>008-011-172200-
...WEST CENTRAL VALLEYS...

CITY           SKY/WX    TMP DP  RH WIND       PRES   REMARKS
GRAND JUNCTION FAIR      42  11  28 S5        30.37F
MONTROSE       FAIR      40  12  32 N7        30.37F
EAGLE          FAIR      33   3  28 S5        30.41F WCI  29
RIFLE          FAIR      41   9  26 CALM      30.37F
DELTA          FAIR      44  10  25 S5        30.37F
NUCLA          FAIR      43   9  24 NW5       30.37F
$$

COZ017>023-064>068-172200-
...SOUTHWEST COLORADO...

CITY           SKY/WX    TMP DP  RH WIND       PRES   REMARKS
DURANGO        FAIR      40  18  41 SW6       30.29F
CORTEZ         FAIR      42  21  43 SW7       30.32F
PAGOSA SPRINGS FAIR      40  12  31 CALM      30.28F
TELLURIDE      FAIR      41   7  24 W6        30.33S
WOLF CREEK PAS FAIR      30 -15  13 N7        30.39S WCI  23
$$

COZ009-010-012-014-032>034-037-058>063-172200-
...CENTRAL COLORADO...

CITY           SKY/WX    TMP DP  RH WIND       PRES   REMARKS
ASPEN          FAIR      37   0  21 N8        30.32F
BUENA VISTA    FAIR      48   2  15 NW12G18   30.25F
COPPER MTN     NOT AVBL
BERTHOUD PASS  FAIR      18   7  62 NW12G18   30.36R WCI   5
COTTONWOOD PAS   N/A     45  -2  14 CALM      30.31S
GUNNISON       FAIR      30   6  36 CALM      30.36F
KREMMLING      FAIR      28   3  34 CALM      30.41F
LEADVILLE      FAIR      35   9  33 N12       30.31S WCI  27
MONARCH PASS   FAIR      30   3  31 SW8       30.46R WCI  23
SALIDA         FAIR      49  -2  11 CALM      30.33F
SUNLIGHT       FAIR      28  12  50 CALM      30.41S
WILKERSON PASS FAIR      34 -18  10 SW6       30.36S WCI  29
$$

COZ069>075-172200-
...SAN LUIS VALLEY/SANGRE DE CRISTO MOUNTAINS...

CITY           SKY/WX    TMP DP  RH WIND       PRES   REMARKS
ALAMOSA        FAIR      40   0  18 N6        30.28F
DEL NORTE      FAIR      37   5  26 SE5       30.29F
LA VETA PASS   FAIR      36   0  21 NE15        N/A
SAGUACHE       FAIR      37   9  30 CALM      30.29F
$$

COZ035-036-038>040-172200-
...NORTHERN COLORADO FRONT RANGE...

CITY           SKY/WX    TMP DP  RH WIND       PRES   REMARKS
DENVER INTL AP FAIR      49   5  16 E5        30.25F
DMNS CITY PARK NOT AVBL
AURORA         SUNNY     49   4  15 E8        30.25F
FRONT RANGE AP SUNNY     50   9  18 CALM      30.26F
ERIE MUNI ARPT FAIR      52   1  12 SE6       30.30S
BOULDER MUN AP FAIR      52   7  16 E6        30.24S
CENTENNIAL     FAIR      50   3  14 VRB5      30.25F
BROOMFIELD     SUNNY     50   1  13 MISG      30.26F
FORT COLLINS   FAIR      49  13  23 S10       30.24F
LONGMONT       FAIR      54   4  13 CALM      30.26S
$$

COZ041-046-047-076>085-087-088-172200-
...PIKES PEAK/PALMER DIVIDE AND SOUTHERN FOOTHILLS...

CITY           SKY/WX    TMP DP  RH WIND       PRES   REMARKS
COLO. SPRINGS  FAIR      53  -2  10 NE14      30.26F
A. F. ACADEMY  FAIR      50  -7   9 N10       30.25S
SCHRIEVER AFB  FAIR      50  -3  11 NE12      30.26S
CHEYENNE MTN   FAIR      44  -7  11 NW8       30.21F
ELLICOTT         N/A    N/A N/A N/A NE12G21   30.25S
FALCON         FAIR      48  -3  12 NE9G16    30.28S
FORT CARSON    FAIR      55 -15   5 E5        30.23F
LIMON          FAIR      48   0  13 N15       30.26S
MONUMENT HILL  FAIR      43   3  19 N8        30.29S
CANON CITY     FAIR      57  -4   8 E9        30.23S
WALSENBURG     FAIR      54   3  13 NE9       30.25S
TRINIDAD       FAIR      55   7  14 NE6       30.24S
$$

COZ042>045-048>051-090-091-172200-
...NORTHEAST COLORADO...

CITY           SKY/WX    TMP DP  RH WIND       PRES   REMARKS
GREELEY ARPT   FAIR      46  18  32 SW6       30.25F
AKRON          FAIR      45  16  31 NW6       30.24F
BURLINGTON     FAIR      50   1  13 N7        30.25F
WRAY           FAIR      52   3  14 NW6       30.24F
YUMA           FAIR      46   9  21 NW9       30.23F
STERLING       FAIR      52  16  24 N16       30.22F
HOLYOKE        FAIR      50  21  32 N10       30.24F
FORT MORGAN    FAIR      54   6  15 N18       30.24F
$$

COZ086-089-092>099-172200-
...SOUTHEAST COLORADO...

CITY           SKY/WX    TMP DP  RH WIND       PRES   REMARKS
PUEBLO         FAIR      52  11  19 SE7       30.23F
LA JUNTA       FAIR      47  14  26 NW5       30.25F
LAMAR          FAIR      47  14  26 W3        30.25F
SPRINGFIELD      N/A     51  11  20 NE7       30.24S
$$




USA.gov is the U.S. government's official web portal to all federal, state and local government web resources and services.